Home > Weather > Constanța > Past weeks

Flag for Romania Past Weather in Constanța, Romania — Yesterday and Last 2 Weeks

Now
80 °F

Passing clouds.


Feels Like: 82 °F
Forecast: 68 / 79 °F
Wind: 2 mph from Northwest

Location: Constanta

Current Time: Jun 28, 2016 at 9:58:10 PM

Latest Report: Jun 28, 2016 at 9:00 PM


Visibility: 6 mi

Pressure: 29.72 "Hg

Humidity: 59%

Dew Point: 64 °F

Location of ConstanțaLocation

Past Weather in Constanța — Graph

°F

Constanța Temperature Yesterday

Maximum temperature yesterday: 84 °F (at 1:00 PM)
Minimum temperature yesterday: 74 °F (at 7:00 AM)
Average temperature yesterday: 78 °F

High & Low Weather Summary for the Past Weeks

 TemperatureHumidityPressure
High87 °F (Jun 16, 4:00 PM)100% (Jun 19, 6:00 AM)30.17 "Hg (Jun 19, 6:00 AM)
Low64 °F (Jun 14, 1:00 PM)30% (Jun 16, 3:00 PM)29.50 "Hg (Jun 14, 4:00 AM)
Average76 °F76%29.94 "Hg
* Reported Jun 13 8:00 PM — Jun 28 8:00 PM, Constanța, Weather by CustomWeather, © 2016

Note: Actual official high and low records may vary slightly from our data, if they occured in-between our weather recording intervals... More about our weather records

Advertising

Constanța Weather History for the Previous 24 Hours

Scroll right to see more
 ConditionsComfort  
Time TempWeatherWind HumidityBarometerVisibility
8:00 PM
Tue, Jun 28
82 °FPartly sunny.2 mph51%29.71 "Hg6 mi
6:00 PM85 °FPartly sunny.5 mph48%29.72 "Hg6 mi
5:00 PM85 °FScattered clouds.3 mph50%29.71 "Hg6 mi
4:00 PM85 °FPartly sunny.3 mph47%29.71 "Hg6 mi
3:00 PM85 °FScattered clouds.3 mph46%29.72 "Hg6 mi
2:00 PM84 °FScattered clouds.3 mph52%29.73 "Hg6 mi
1:00 PM82 °FPartly sunny.5 mph57%29.74 "Hg6 mi
12:00 PM82 °FPartly sunny.3 mph62%29.73 "Hg6 mi
11:00 AM79 °FPartly sunny.3 mph67%29.72 "Hg6 mi
10:00 AM78 °FPartly sunny.5 mph69%29.71 "Hg6 mi
9:00 AM75 °FPartly sunny.5 mph77%29.71 "Hg6 mi
8:00 AM73 °FPartly sunny.3 mph82%29.70 "Hg6 mi
7:00 AM72 °FPartly sunny.5 mph82%29.71 "Hg6 mi
6:00 AM72 °FScattered clouds.3 mph82%29.71 "Hg6 mi
5:00 AM74 °FPassing clouds.2 mph76%29.71 "Hg6 mi
4:00 AM74 °FPassing clouds.1 mph75%29.72 "Hg6 mi
3:00 AM75 °FPassing clouds.2 mph76%29.73 "Hg6 mi
2:00 AM76 °FPassing clouds.1 mph73%29.74 "Hg6 mi
1:00 AM76 °FMild.1 mph69%29.75 "HgN/A
12:00 AM76 °FPassing clouds.2 mph68%29.75 "Hg6 mi
11:00 PM
Mon, Jun 27
76 °FPassing clouds.2 mph66%29.75 "Hg6 mi
10:00 PM75 °FOvercast.2 mph69%29.76 "Hg6 mi
9:00 PM76 °FOvercast.2 mph69%29.76 "Hg6 mi
Weather by CustomWeather, © 2016

See weather overviewHow to use our weather pages